Location: Nag� el Ma?a??a
(24.0667°N, 32.8833°E)
Time: 13:38:36
(UTC+00:00)

N. Korean satellite - Pass Details

Date: 05 December 2022
Orbit: 407 x 442 km, 97.3° (Epoch: 04 February)

Event Time Altitude Azimuth Distance (km) Brightness Sun altitude
Rises 02:57:31 0° 9° (N) 2,482 10.1 -17.9°
Reaches altitude 10° 02:59:34 10° 9° (N) 1,597 9.1 -17.4°
Maximum altitude 03:03:00 81° 283° (WNW) 459 6.2 -16.7°
Drops below altitude 10° 03:06:20 10° 194° (SSW) 1,557 9.2 -15.9°
Sets 03:08:20 0° 193° (SSW) 2,413 10.2 -15.5°
